Starlink 32888

operational
NORAD ID: 62966 Int'l Des: 2025-029 Owner: SPXS Country: US Constellation: starlink
LEOCIRCULAR

Über Starlink 32888

Beschreibung wird geladen...

Live-Position

3D-Globus wird geladen...

Nächste Überflüge

Höhenverlauf

Altitude vs Time

uPlot chart will show altitude changes over time

Zweizeiliger Elementsatz

1 62966U 25029U 25352.95641504 .00007676 00000-0 27114-3 0 9992
2 62966 53.1590 247.7016 0001807 90.1702 269.9505 15.30184540 48959
Epoch: 18. Dez. 2025 • Age: 10 hours

Aktueller Status

Höhe 484.5 km
Geschwindigkeit 7.62 km/s
Subsatellitenpunkt -28.52°S, 138.16°W
Startdatum 11. Feb. 2025
Alter 0.8 years
Typ internet

Technische Details

Klassifizierung Payload
Masse 730.00 kg
Trockenmasse 700.00 kg
Gesamtmasse 730.00 kg
Länge 0.30 m
Durchmesser 4.10 m
Spannweite 29.00 m
Form Box + pan
Hersteller SPXS
Bus-Typ Starlink V2M
Phasenstatus In Orbit
Besitzer/Staat SPXS/US

Große Konstellationen

Loading constellations...